SCP
0 0 0 0 0 0 0 0 0 0 0 1 1 1 1 1 2 3 3 4 4 5 5 5 4 4 4 4 4 4 4 4 4 4 4 4 3 3 3 3 2 2 2 2
0 0 0 0 0 0 0 0 0 0 1 1 1 1 1 1 2 3 3 3 4 4 4 4 4 4 4 4 4 4 4 4 4 4 4 4 3 3 2 2 2 2 2 2
0 0 0 1 1 0 0 0 0 1 1 1 1 1 2 2 2 2 3 3 3 3 4 4 4 4 4 4 4 3 3 3 3 3 4 4 3 3 3 3 3 3 3 3
0 0 1 1 1 1 1 1 1 1 1 1 2 2 2 2 2 2 2 2 2 3 4 4 5 5 4 4 4 3 3 2 3 3 4 4 4 4 3 3 3 3 3 3
0 1 1 1 1 1 1 1 2 1 1 1 2 2 2 2 2 2 3 3 3 3 3 4 5 5 4 4 3 3 3 2 3 3 4 4 4 4 4 4 4 4 3 3
1 1 1 1 1 1 1 2 2 2 1 1 1 2 2 2 2 3 3 3 3 3 3 3 4 5 4 4 3 3 2 2 2 3 3 3 3 3 4 4 4 4 3 3
1 1 1 1 1 1 1 1 1 2 2 2 2 2 2 3 3 4 4 3 3 3 3 4 5 5 5 4 3 3 2 2 2 3 3 3 3 3 4 4 4 4 3 3
1 1 1 2 2 2 2 2 2 2 2 2 3 3 4 4 4 3 4 4 4 4 4 5 6 6 6 5 4 3 3 2 2 3 2 3 3 4 4 5 4 4 3 3
1 1 1 2 2 2 2 2 2 2 2 3 4 4 5 4 3 3 4 4 4 4 5 7 7 7 7 6 4 4 3 3 3 3 3 3 4 5 5 6 5 4 3 3
2 1 1 2 2 3 3 3 3 3 2 3 4 5 5 4 3 3 4 5 5 5 5 6 6 6 6 5 4 4 4 3 2 3 3 3 4 5 6 6 6 5 4 3
2 1 1 2 2 3 4 4 4 3 3 3 4 4 4 4 4 4 5 5 6 5 5 5 5 5 5 4 4 4 4 3 2 2 3 3 3 4 4 4 4 4 3 3
2 2 2 2 2 2 3 3 3 4 3 3 3 4 4 4 4 5 6 7 7 6 5 5 5 5 5 5 5 5 4 3 3 3 3 3 3 3 2 2 2 2 2 2
2 2 2 2 2 2 2 2 2 3 3 3 3 3 3 3 4 5 6 7 7 6 5 4 4 5 5 5 5 5 4 4 4 4 4 4 4 3 3 2 1 0 0 0
2 2 2 3 2 2 2 2 2 2 3 3 3 2 2 3 3 3 4 5 5 4 4 4 4 4 5 5 5 5 4 4 4 4 4 5 5 5 4 3 2 1 1 0
1 2 2 2 2 2 2 2 2 2 2 3 3 3 2 2 2 2 2 3 3 3 3 3 4 4 4 5 5 5 4 3 3 3 3 4 4 5 4 3 2 2 1 1
1 1 1 1 2 1 2 2 2 1 2 2 3 3 2 2 1 1 1 2 3 3 3 3 3 4 4 4 4 4 4 2 2 2 2 2 2 3 3 2 2 1 1 1
1 1 1 1 1 1 1 1 1 1 1 2 2 2 2 1 1 1 2 2 2 3 3 3 3 3 3 3 3 3 3 2 1 1 1 1 1 1 1 1 1 1 1 1
1 1 1 1 1 1 1 1 1 1 1 1 1 1 1 1 1 1 2 2 2 2 2 2 2 2 2 2 2 2 2 1 1 1 1 1 1 1 1 1 1 0 0 0
0 0 0 0 1 1 1 1 2 2 2 1 1 1 1 1 1 1 1 1 2 1 1 1 1 1 1 1 1 1 1 1 1 1 1 1 1 1 1 1 1 1 0 0
0 0 0 0 1 1 1 2 2 2 1 1 1 1 1 1 1 1 1 1 1 1 1 1 1 1 1 1 0 0 0 0 0 1 1 1 1 1 1 1 1 1 0 0
0 0 0 0 0 1 1 1 1 1 1 1 1 1 1 0 0 0 0 0 0 0 0 1 1 1 1 1 1 1 1 1 1 1 1 1 1 1 1 1 1 1 0 0
0 0 0 0 0 0 0 0 0 0 0 1 1 1 0 0 0 0 0 0 0 0 0 0 1 1 1 1 1 1 1 1 1 1 1 1 1 1 1 1 1 1 1 1
0 0 0 0 0 0 0 0 0 0 1 1 1 1 0 0 0 0 0 0 0 0 0 0 0 0 0 1 1 1 1 1 1 1 1 1 1 1 1 1 1 1 1 1
0 0 0 0 0 0 0 0 0 0 1 1 1 0 0 0 0 0 0 0 0 0 0 0 0 0 0 0 0 1 1 1 1 1 1 1 1 1 1 1 1 1 0 0
0 0 0 0 0 0 0 0 0 0 0 1 0 0 0 0 0 0 0 0 0 0 0 0 0 0 0 0 0 0 0 0 0 1 1 0 0 0 0 0 0 0 0 0
0 0 0 0 0 0 0 0 0 0 0 0 0 0 0 0 0 0 0 0 0 0 0 0 0 0 0 0 0 0 0 0 0 0 0 0 0 0 0 0 0 0 0 0
0 0 0 0 0 0 0 0 0 0 0 0 0 0 0 0 0 0 0 0 0 0 0 0 0 0 0 0 0 0 0 0 0 0 0 0 0 0 0 0 0 0 0 0
Wind_Speed
10 7 12 14 16 17 17 15 12 9 9 6 5 4 3 3 4 4 5 6 6 6 5 6 7 7 7 8 8 9 10 11 12 11 11 11 11 11 11 11 11 10 10 10
11 11 11 13 15 17 17 15 13 10 8 4 4 3 4 4 4 5 5 6 6 6 6 6 7 7 8 8 8 9 9 10 9 10 11 11 11 11 11 11 10 10 10 11
12 12 12 15 14 15 15 14 13 12 7 6 6 5 4 4 4 4 5 5 5 5 5 6 7 7 8 8 8 8 9 9 9 9 10 10 11 11 11 10 10 10 10 10
9 12 15 7 7 10 11 11 10 8 6 6 5 4 4 3 4 4 4 4 4 4 5 5 6 7 7 8 8 8 9 9 9 9 9 9 9 10 10 9 9 9 9 9
8 13 11 7 7 9 10 9 8 8 6 6 6 6 5 4 4 4 4 3 3 4 5 5 6 7 7 8 8 8 8 8 8 9 9 9 9 9 9 8 8 9 9 9
9 12 11 7 7 5 7 9 6 7 7 8 9 7 6 6 5 4 4 3 3 4 5 6 6 7 7 8 8 8 8 7 7 8 8 9 8 8 8 8 8 8 8 9
11 10 5 4 5 7 10 5 6 6 7 8 5 2 6 5 5 5 4 4 4 5 5 5 6 6 6 6 6 6 6 7 7 7 7 7 7 7 7 8 8 8 8 8
10 11 5 4 4 4 2 3 4 5 5 5 6 7 6 6 6 6 5 5 4 5 5 5 5 6 6 5 5 5 6 6 6 6 6 7 7 7 7 7 7 7 7 7
3 0 4 2 2 3 1 2 3 5 5 6 7 7 7 6 6 5 5 5 4 5 6 6 5 4 5 4 4 5 5 5 5 5 4 4 6 6 6 6 6 7 7 6
2 2 2 2 3 2 3 3 4 5 6 7 8 8 7 6 6 5 5 5 4 5 6 5 5 4 4 4 5 5 5 4 4 4 4 4 4 4 4 4 5 5 5 5
3 3 3 3 4 4 5 6 7 7 7 7 8 9 8 7 6 5 5 5 5 5 5 5 5 4 4 4 4 5 5 5 4 4 4 4 3 1 2 1 0 2 3 3
1 2 1 3 3 4 6 6 7 8 9 8 8 9 8 7 6 6 6 6 6 6 6 5 5 4 4 3 3 3 4 4 3 3 4 4 5 4 8 6 8 8 7 4
1 1 3 3 4 5 6 7 8 8 9 9 9 9 8 8 7 7 7 6 6 6 6 6 6 5 5 4 3 3 3 3 2 2 3 4 4 4 4 5 8 9 8 6
2 3 4 4 5 6 7 9 10 10 9 9 9 9 8 8 8 8 7 6 6 6 6 6 6 6 5 5 4 4 4 4 2 2 2 3 4 4 4 4 4 4 6 7
3 3 4 5 7 8 8 9 10 10 10 10 10 9 9 9 9 8 7 7 7 8 8 7 7 7 5 5 6 6 5 4 3 3 3 4 4 4 4 5 5 5 5 6
5 6 7 7 8 9 9 10 10 10 10 10 10 10 10 10 10 9 8 8 8 9 8 8 8 7 6 6 7 6 6 6 4 4 5 5 5 5 6 6 6 6 6 5
6 6 7 8 8 9 10 10 10 9 9 10 10 10 10 11 11 10 9 9 9 9 8 8 8 7 7 7 6 6 6 7 7 7 7 7 6 7 7 7 7 7 7 8
5 7 7 8 8 9 10 10 10 10 9 10 10 10 10 10 10 10 9 9 10 10 10 9 8 8 8 8 7 6 7 7 7 8 7 8 7 7 7 8 8 9 7 8
8 9 10 10 10 10 10 10 10 10 9 9 10 10 10 10 9 9 9 9 10 9 9 9 8 9 10 9 7 6 8 8 8 8 8 9 8 8 8 8 8 8 7 7
10 11 11 11 11 10 10 10 10 10 9 9 10 11 11 10 9 9 10 10 9 7 7 8 8 9 9 8 6 7 8 9 9 9 8 8 8 8 8 8 8 7 7 7
11 12 12 12 11 11 11 11 10 10 10 10 10 10 10 10 9 9 9 9 9 8 8 8 7 7 8 7 7 8 8 8 8 8 8 8 8 8 8 8 7 7 7 7
11 11 12 12 12 11 10 10 10 11 10 10 10 11 10 10 10 10 10 8 8 7 6 8 8 9 8 7 8 9 9 9 9 8 8 8 8 8 8 8 7 7 7 7
10 11 11 12 12 12 11 10 10 10 10 10 10 10 10 9 7 8 8 7 7 8 8 9 9 8 7 8 9 9 10 9 9 8 8 8 8 7 7 8 7 7 7 6
11 11 11 11 12 12 12 11 10 9 10 10 10 9 9 8 8 8 8 9 9 9 9 9 9 8 7 8 9 9 9 8 8 8 8 7 7 7 7 7 7 7 7 8
11 11 11 11 11 10 11 11 11 10 10 9 10 10 8 7 8 8 8 10 9 8 9 9 8 7 8 8 8 9 9 8 8 7 8 8 8 8 7 7 7 6 6 6
9 9 9 9 9 8 8 7 7 7 8 8 9 8 8 7 8 8 7 9 11 8 8 7 8 7 8 8 9 9 8 8 8 8 9 8 8 8 7 7 8 6 6 6
10 9 8 8 8 7 7 7 8 8 8 8 9 8 7 7 7 8 8 8 7 8 7 7 7 8 8 8 8 8 8 8 8 7 7 7 7 6 6 7 6 6 6 6
Wind_Direction
236 212 197 202 205 209 218 230 236 226 227 209 193 196 170 160 161 156 155 155 155 157 158 167 169 169 171 172 174 178 182 188 191 193 193 195 196 198 198 201 205 204 206 208
220 214 211 213 212 212 217 226 234 236 229 202 164 159 166 171 168 164 160 158 155 155 154 160 163 164 164 171 173 176 181 185 184 188 189 192 195 195 195 198 201 202 204 205
212 205 213 217 212 211 213 220 228 231 221 178 175 172 170 167 167 159 155 151 151 154 157 161 163 164 166 169 172 175 179 181 181 188 191 193 194 191 193 194 196 200 203 204
214 197 217 206 198 215 217 218 224 225 192 181 172 156 153 152 151 145 145 146 147 152 150 154 158 161 162 164 171 176 180 182 184 189 193 194 193 193 193 193 195 199 202 203
217 210 210 182 189 202 208 208 207 205 178 161 152 154 149 135 137 139 140 142 148 150 145 145 151 153 154 160 166 173 179 182 184 188 189 190 194 195 191 190 194 197 197 198
222 219 214 179 161 192 209 202 179 188 175 171 183 196 138 124 130 122 118 126 141 142 138 138 142 149 154 159 165 173 175 179 181 185 188 191 192 191 188 190 194 197 197 200
223 222 203 114 145 188 212 172 154 180 177 185 192 76 106 118 117 113 114 120 128 133 133 134 140 148 155 158 165 169 170 172 178 185 189 190 187 187 188 191 193 199 197 200
217 220 185 91 175 202 36 63 151 161 163 148 119 111 112 114 119 117 112 115 121 125 122 122 134 147 151 155 161 165 167 170 174 184 191 185 183 184 188 189 189 194 198 202
232 168 57 56 31 22 50 127 135 134 127 132 131 120 115 116 114 109 106 109 115 118 116 115 124 139 145 148 153 158 160 161 165 167 177 178 178 181 184 191 197 194 194 199
193 124 82 70 64 76 103 112 112 120 124 128 124 118 114 110 108 104 99 103 108 113 113 111 116 124 123 130 143 150 153 157 159 161 167 169 178 180 186 195 201 199 197 199
189 145 122 89 60 74 94 107 114 113 115 118 117 112 109 104 97 93 88 84 85 90 92 98 105 105 105 116 137 146 150 156 159 159 161 156 155 121 182 156 231 219 208 206
185 128 138 96 74 88 100 107 112 110 104 103 106 106 102 95 89 87 85 83 84 86 86 86 89 93 95 103 120 138 150 154 155 158 154 155 140 110 62 63 60 51 35 22
13 78 76 97 91 91 98 101 101 100 102 102 100 100 99 95 88 82 80 81 83 84 83 85 83 76 71 75 91 104 111 119 133 138 139 143 142 138 122 89 71 58 48 46
118 128 124 109 99 96 100 101 99 94 93 91 94 98 99 94 85 77 71 71 78 83 81 79 77 70 65 72 80 87 96 97 104 113 118 126 128 129 127 122 109 88 70 69
115 112 119 116 115 111 110 109 105 99 96 91 88 90 91 89 82 74 69 73 78 78 74 72 70 65 65 78 84 83 83 85 88 90 93 95 98 100 100 99 95 93 91 89
108 105 113 118 120 119 116 113 107 101 97 96 93 90 89 87 84 78 70 67 69 67 67 69 68 65 70 79 85 82 78 72 82 94 91 89 87 88 87 86 83 78 70 67
130 124 120 117 114 112 110 106 103 102 99 96 95 95 94 92 88 80 73 69 68 65 64 66 67 67 72 79 85 86 87 83 78 82 82 82 82 82 84 85 82 76 67 49
116 117 118 119 116 111 108 107 105 103 100 99 97 93 89 87 84 83 80 79 75 66 57 57 62 67 70 73 77 81 84 84 82 81 81 78 79 80 82 83 84 84 82 74
115 115 113 112 114 113 110 108 105 102 100 99 97 92 87 84 83 83 81 78 74 68 57 58 59 70 74 71 72 84 85 88 87 84 83 81 80 80 80 79 79 78 76 75
110 110 109 110 111 109 108 106 103 99 97 97 96 93 89 84 83 84 81 72 60 60 60 57 66 70 72 68 66 82 83 85 86 86 85 85 86 84 81 81 80 79 77 76
111 111 111 109 107 106 106 106 104 101 98 96 95 95 91 86 82 80 80 76 61 57 66 61 61 65 68 68 70 77 79 81 82 82 84 83 82 82 81 81 79 78 77 75
109 109 107 106 105 104 104 105 104 103 101 98 96 95 95 92 88 80 70 69 69 50 62 64 62 54 56 67 76 77 78 79 79 78 77 76 77 77 76 76 75 74 72 72
105 106 106 106 106 105 102 100 99 98 96 95 93 92 89 84 83 85 80 68 71 63 66 65 54 49 51 75 77 77 76 77 77 78 76 75 74 74 74 73 72 69 68 67
107 107 107 109 109 107 103 99 95 95 96 96 94 94 94 93 87 82 86 79 69 72 74 63 53 52 61 77 78 77 76 75 75 76 77 76 76 74 73 72 71 69 67 63
106 107 108 108 105 102 103 103 102 100 98 95 93 88 84 84 88 88 89 88 87 84 84 76 63 60 73 74 75 75 72 67 67 70 73 70 70 71 70 68 67 66 64 61
100 100 99 100 102 107 107 105 104 103 100 97 92 88 88 89 93 94 92 89 85 83 82 83 81 77 75 76 75 76 79 81 76 72 70 69 68 68 67 66 66 63 61 59
101 101 101 100 98 97 100 103 104 101 99 97 95 90 89 90 91 92 92 91 89 82 79 77 76 75 74 73 74 74 73 72 71 71 72 71 70 69 68 66 62 60 56 55